This demonstration page uses our WeatherBlox Daily Observations layout. Learn more.

38.88101, -77.10428

Hourly Observations for March 16, 2018

Temp ( °F °C ) Dew Point ( °F °C ) Humidity (%) Winds ( mph kmh ) Pressure ( in mb ) Visibility ( mi km ) Precip ( " mm )
12:52 am 00:52 Mostly Clear 39 3.9 22 -5.6 50 50 NNW 10 17 29.76 1008 10 16.0934 0 0
1:52 am 01:52 Clear 39 3.9 22 -5.6 50 50 WNW 6 9 29.76 1008 10 16.0934 0 0
2:52 am 02:52 Clear 38 3.3 22 -5.6 52 52 NW 6 9 29.76 1008 10 16.0934 0 0
3:52 am 03:52 Clear 38 3.3 21 -6.1 51 51 WNW 6 9 29.77 1008 10 16.0934 0 0
4:52 am 04:52 Mostly Clear 37 2.8 22 -5.6 54 54 SW 3 6 29.78 1009 10 16.0934 0 0
5:52 am 05:52 Clear 38 3.3 18 -7.8 44 44 WNW 7 11 29.8 1009 10 16.0934 0 0
6:52 am 06:52 Mostly Clear 36 2.2 19 -7.2 50 50 W 3 6 29.82 1010 10 16.0934 0 0
7:52 am 07:52 Mostly Sunny 37 2.8 20 -6.7 50 50 W 8 13 29.85 1011 10 16.0934 0 0
8:23 am 08:23 Mostly Cloudy with Scattered Snow Showers 38 3.3 21 -6.1 51 51 NW 21 33 29.88 1012 3 4.82802 0 0.0254
8:31 am 08:31 Cloudy with Light Snow 36 2.2 26 -3.3 67 67 NW 16 26 29.88 1012 2 3.21868 0 0.0254
8:35 am 08:35 Cloudy with Light Snow 36 2.2 27 -2.8 70 70 NW 18 30 29.91 1013 2 3.21868 0 0.0254
8:49 am 08:49 Cloudy with Light Snow 36 2 27 -3 70 70 NNW 17 28 29.91 1013 4 6.43736 0 0.0254
8:52 am 08:52 Windy with Snow Likely 35 1.7 27 -2.8 72 72 NNW 20 31 29.91 1013 4 6.43736 0 0.0254
8:56 am 08:56 Mostly Cloudy with Scattered Snow Showers 34 1.1 27 -2.8 76 76 NW 14 22 29.91 1013 7 11.26538 0 0.0254
9:01 am 09:01 Mostly Cloudy 35 1.7 26 -3.3 70 70 NNW 18 30 29.91 1013 10 16.0934 0 0.0254
9:52 am 09:52 Partly Cloudy 38 3.3 14 -10 37 37 NW 24 39 29.93 1013 10 16.0934 0 0.0254
10:52 am 10:52 Mostly Sunny 38 3.3 10 -12.2 31 31 NW 23 37 29.96 1015 10 16.0934 0 0
11:52 am 11:52 Partly Cloudy 41 5 13 -10.6 32 32 NNW 23 37 29.98 1015 10 16.0934 0 0
12:52 pm 12:52 Partly Cloudy 43 6.1 14 -10 31 31 NW 21 33 29.98 1015 10 16.0934 0 0
1:52 pm 13:52 Mostly Sunny 44 6.7 14 -10 30 30 NW 21 33 29.98 1015 10 16.0934 0 0
2:52 pm 14:52 Mostly Sunny 46 7.8 13 -10.6 26 26 NNW 22 35 29.96 1015 10 16.0934 0 0
3:52 pm 15:52 Mostly Sunny 47 8.3 14 -10 26 26 NW 20 31 29.97 1015 10 16.0934 0 0
4:52 pm 16:52 Mostly Sunny 46 7.8 13 -10.6 26 26 WNW 17 28 29.98 1015 10 16.0934 0 0
5:52 pm 17:52 Mostly Sunny 45 7.2 12 -11.1 26 26 NW 20 31 30 1016 10 16.0934 0 0
6:52 pm 18:52 Mostly Sunny 43 6.1 13 -10.6 29 29 NW 14 22 30.03 1017 10 16.0934 0 0
7:52 pm 19:52 Mostly Clear 41 5 13 -10.6 32 32 NNW 14 22 30.04 1017 10 16.0934 0 0
8:52 pm 20:52 Clear 39 3.9 13 -10.6 34 34 NNW 8 13 30.06 1018 10 16.0934 0 0
9:52 pm 21:52 Clear 38 3.3 12 -11.1 34 34 NNW 7 11 30.06 1018 10 16.0934 0 0
10:52 pm 22:52 Partly Cloudy 38 3.3 12 -11.1 34 34 NW 6 9 30.06 1018 10 16.0934 0 0
11:52 pm 23:52 Mostly Cloudy 37 2.8 13 -10.6 37 37 WSW 3 6 30.07 1018 10 16.0934 0 0

Powered by AerisWeather